EW9138 Weather Reports


time (UTC)temp
F
wind
direction
speed
knots
gust
knots
rain 1hr
in
rain 24hr
in
rain mn
in
humidity
%
barometer
mb
20260507200257 55 245 0.9 4.3 0.00 0.03 0.03 87 1016.4
20260507195757 55 288 0.9 4.3 0.00 0.03 0.03 87 1016.2
20260507195258 55 300 1.7 2.6 0.00 0.03 0.03 86 1016.2
20260507194257 56 274 0.9 4.3 0.00 0.03 0.03 87 1015.9
20260507193757 56 269 0.9 4.3 0.00 0.03 0.03 86 1015.9
20260507192759 56 242 0.9 2.6 0.00 0.03 0.03 85 1015.7
20260507192257 56 325 0.9 2.6 0.00 0.03 0.03 85 1015.7
20260507191758 56 179 0.9 2.6 0.00 0.03 0.03 85 1015.7
20260507191258 56 0 1.7 4.3 0.00 0.03 0.03 84 1015.5
20260507190757 56 310 1.7 4.3 0.00 0.03 0.03 83 1015.5
20260507190258 56 244 0.0 4.3 0.00 0.03 0.03 83 1015.5
20260507185757 57 268 0.0 4.3 0.00 0.03 0.03 84 1015.2
20260507185258 57 275 0.9 1.7 0.00 0.03 0.03 85 1015.2
20260507184757 57 275 0.9 1.7 0.00 0.03 0.03 83 1015.2
20260507184257 57 275 1.7 2.6 0.00 0.03 0.03 83 1015.1
20260507183257 58 286 1.7 4.3 0.00 0.03 0.03 82 1015.1
20260507182758 58 59 1.7 4.3 0.00 0.03 0.03 82 1014.9
20260507182257 58 59 0.9 4.3 0.00 0.03 0.03 82 1014.9
20260507181758 59 59 0.9 2.6 0.00 0.03 0.03 82 1014.9
20260507181257 59 12 0.9 4.3 0.00 0.03 0.03 81 1014.7
20260507180758 59 74 0.9 4.3 0.00 0.03 0.03 81 1014.7
20260507180257 59 286 0.0 4.3 0.00 0.03 0.03 81 1014.7
20260507175757 60 263 0.0 1.7 0.00 0.03 0.03 82 1014.5
20260507175258 60 263 0.0 2.6 0.00 0.03 0.03 81 1014.5
20260507174758 60 263 0.0 2.6 0.00 0.03 0.03 80 1014.5
20260507174258 60 263 0.0 2.6 0.00 0.03 0.03 79 1014.3
20260507173757 61 263 0.0 1.7 0.00 0.03 0.03 79 1014.3
20260507173257 61 263 0.0 1.7 0.00 0.03 0.03 78 1014.3
20260507172258 62 262 0.9 1.7 0.00 0.03 0.03 73 1014.3
20260507171258 62 255 1.7 4.3 0.00 0.03 0.03 72 1014.2
20260507170757 62 229 1.7 4.3 0.00 0.03 0.03 70 1014.2
20260507170257 63 246 1.7 4.3 0.00 0.03 0.03 70 1014.2
20260507165757 63 248 1.7 4.3 0.00 0.03 0.03 69 1014.0
20260507165257 63 52 1.7 4.3 0.00 0.03 0.03 69 1014.0
20260507164757 62 254 1.7 4.3 0.00 0.03 0.03 68 1014.0
20260507164258 62 168 1.7 4.3 0.00 0.03 0.03 68 1014.0
20260507163258 63 200 1.7 4.3 0.00 0.03 0.03 64 1014.0
20260507162757 63 217 1.7 4.3 0.00 0.03 0.03 62 1013.9
20260507162257 63 182 1.7 4.3 0.00 0.03 0.03 66 1013.9
20260507161757 63 174 1.7 4.3 0.00 0.03 0.03 66 1013.9
20260507161258 62 175 1.7 4.3 0.00 0.03 0.03 68 1013.8
20260507160758 62 242 1.7 4.3 0.00 0.03 0.03 70 1013.8
20260507155758 62 173 1.7 5.2 0.00 0.03 0.03 71 1013.8
20260507155257 62 183 1.7 5.2 0.00 0.03 0.03 72 1013.8
20260507154757 62 204 1.7 4.3 0.00 0.03 0.03 70 1013.8
20260507154257 62 214 1.7 4.3 0.00 0.03 0.03 70 1013.7
20260507153757 62 238 1.7 4.3 0.00 0.03 0.03 73 1013.7
20260507152758 62 220 1.7 4.3 0.00 0.03 0.03 71 1013.7
20260507152257 62 200 1.7 4.3 0.00 0.03 0.03 70 1013.7
20260507151757 62 206 1.7 4.3 0.00 0.03 0.03 70 1013.7
20260507151257 62 231 0.9 4.3 0.00 0.03 0.03 76 1013.8
20260507150757 61 231 0.9 4.3 0.00 0.03 0.03 72 1013.8
20260507150258 61 220 1.7 4.3 0.00 0.03 0.03 73 1013.8
20260507145758 61 219 1.7 4.3 0.00 0.03 0.03 74 1014.0
20260507145258 60 224 1.7 2.6 0.00 0.03 0.03 79 1014.0
20260507144257 59 162 1.7 4.3 0.00 0.03 0.03 84 1014.2
20260507143757 58 205 1.7 4.3 0.00 0.03 0.03 83 1014.2
20260507142758 58 240 1.7 7.0 0.01 0.03 0.03 86 1014.2
20260507142258 58 199 1.7 7.0 0.01 0.03 0.03 88 1014.2
20260507141758 57 175 1.7 6.1 0.03 0.03 0.03 89 1014.2
20260507140757 57 163 2.6 7.0 0.03 0.03 0.03 91 1014.3
20260507135258 56 195 1.7 2.6 0.03 0.03 0.03 93 1014.3
20260507134758 56 232 1.7 4.3 0.03 0.03 0.03 91 1014.3
20260507134258 55 236 1.7 7.0 0.03 0.03 0.03 90 1014.6
20260507133758 56 248 1.7 7.0 0.03 0.03 0.03 89 1014.6
20260507133257 56 269 0.9 5.2 0.03 0.03 0.03 89 1014.6
20260507132758 57 217 0.9 2.6 0.02 0.02 0.02 89 1015.3
20260507132257 57 308 0.9 2.6 0.02 0.03 0.02 88 1015.3
20260507131757 57 214 0.9 2.6 0.00 0.01 0.00 86 1015.3
20260507131258 57 342 1.7 4.3 0.00 0.01 0.00 87 1015.1
20260507130758 57 173 1.7 4.3 0.00 0.02 0.00 86 1015.1
20260507130258 57 176 1.7 4.3 0.00 0.02 0.00 85 1015.1
20260507125757 58 205 1.7 4.3 0.00 0.03 0.00 85 1014.8
20260507125258 58 211 0.9 4.3 0.00 0.05 0.00 84 1014.8
20260507124758 58 200 0.9 4.3 0.00 0.07 0.00 83 1014.8
20260507124258 58 177 0.9 2.6 0.00 0.07 0.00 82 1014.3
20260507123758 58 177 0.9 2.6 0.00 0.07 0.00 83 1014.3
20260507122758 58 53 0.9 4.3 0.00 0.07 0.00 85 1014.2
20260507122258 58 32 1.7 6.1 0.00 0.08 0.00 83 1014.2
20260507121757 58 281 1.7 6.1 0.00 0.09 0.00 81 1014.2
20260507121258 59 155 0.9 6.1 0.00 0.09 0.00 83 1014.2
20260507120758 59 178 0.9 1.7 0.00 0.09 0.00 83 1014.2
20260507120258 59 252 1.7 4.3 0.00 0.09 0.00 83 1014.2
20260507115258 60 281 1.7 2.6 0.00 0.09 0.00 84 1014.1
20260507114758 60 332 1.7 5.2 0.00 0.09 0.00 82 1014.1
20260507114257 60 15 0.9 5.2 0.00 0.09 0.00 81 1013.9
20260507113259 61 307 0.9 2.6 0.00 0.09 0.00 76 1013.9
20260507112257 62 273 1.7 1.7 0.00 0.09 0.00 76 1013.8
20260507111758 62 155 1.7 5.2 0.00 0.09 0.00 77 1013.8
20260507110758 63 318 1.7 5.2 0.00 0.10 0.00 75 1013.4
20260507110258 63 231 1.7 4.3 0.00 0.10 0.00 77 1013.4
20260507105758 63 284 1.7 4.3 0.00 0.11 0.00 76 1013.6
20260507105258 64 181 1.7 4.3 0.00 0.11 0.00 71 1013.6
20260507104258 64 278 1.7 4.3 0.00 0.11 0.00 69 1013.7
20260507103758 64 175 1.7 4.3 0.00 0.11 0.00 70 1013.7
20260507103258 64 235 1.7 4.3 0.00 0.11 0.00 70 1013.7
20260507102758 64 222 1.7 4.3 0.00 0.11 0.00 73 1013.9
20260507102258 63 302 1.7 4.3 0.00 0.11 0.00 70 1013.9
20260507101758 63 181 1.7 4.3 0.00 0.11 0.00 71 1013.9
20260507101258 62 200 1.7 4.3 0.00 0.11 0.00 74 1014.0
20260507100758 62 177 1.7 5.2 0.00 0.11 0.00 73 1014.0
20260507100300 62 325 1.7 5.2 0.00 0.11 0.00 73 1014.0
20260507095758 61 231 1.7 5.2 0.00 0.11 0.00 74 1014.1
20260507094758 61 171 1.7 5.2 0.00 0.11 0.00 77 1014.1
20260507094258 60 168 1.7 5.2 0.00 0.11 0.00 76 1014.1
20260507093758 60 183 1.7 5.2 0.00 0.11 0.00 76 1014.1
20260507092758 60 177 1.7 5.2 0.00 0.11 0.00 78 1014.1
20260507092258 60 177 1.7 4.3 0.00 0.11 0.00 79 1014.1
20260507091758 60 187 1.7 4.3 0.00 0.11 0.00 78 1014.1
20260507091258 60 321 1.7 4.3 0.00 0.11 0.00 79 1014.2
20260507090758 59 120 1.7 4.3 0.00 0.11 0.00 82 1014.2
20260507085759 59 191 1.7 4.3 0.00 0.11 0.00 81 1014.2
20260507084758 59 34 0.0 1.7 0.00 0.11 0.00 82 1014.2
20260507084258 58 275 1.7 1.7 0.00 0.11 0.00 82 1014.3
20260507083258 57 241 1.7 4.3 0.00 0.11 0.00 84 1014.3
20260507082758 56 341 1.7 4.3 0.00 0.11 0.00 84 1014.3
20260507082258 56 187 1.7 2.6 0.00 0.11 0.00 85 1014.3
20260507081758 56 290 1.7 4.3 0.00 0.11 0.00 86 1014.3
20260507081258 55 266 1.7 4.3 0.00 0.13 0.00 86 1014.3
20260507080759 55 322 1.7 4.3 0.00 0.13 0.00 86 1014.3
20260507080258 54 273 1.7 2.6 0.00 0.14 0.00 87 1014.3
20260507075258 53 245 0.9 2.6 0.00 0.15 0.00 88 1014.2
20260507074758 53 268 0.9 2.6 0.00 0.15 0.00 89 1014.2
20260507074258 53 283 0.0 2.6 0.00 0.16 0.00 90 1014.2
20260507073759 53 241 0.0 1.7 0.00 0.17 0.00 92 1014.2
20260507072758 53 263 0.0 1.7 0.00 0.18 0.00 94 1014.2
20260507072259 53 263 0.0 1.7 0.00 0.18 0.00 94 1014.2
20260507071803 53 263 0.0 1.7 0.00 0.18 0.00 94 1014.2
20260507071259 53 263 0.0 1.7 0.00 0.19 0.00 94 1014.1
20260507070758 52 263 0.0 1.7 0.00 0.20 0.00 94 1014.1
20260507070258 52 263 0.0 1.7 0.00 0.21 0.00 94 1014.1
20260507065258 52 262 0.9 2.6 0.00 0.25 0.00 94 1014.2
20260507064758 52 262 0.9 2.6 0.00 0.26 0.00 94 1014.2
20260507064259 52 200 0.0 2.6 0.00 0.27 0.00 94 1014.3
20260507063759 52 242 0.0 1.7 0.00 0.28 0.00 94 1014.3
20260507063259 52 186 0.0 1.7 0.00 0.29 0.00 94 1014.3
20260507062758 52 186 0.0 1.7 0.00 0.31 0.00 94 1014.3
20260507062259 52 186 0.0 1.7 0.00 0.32 0.00 94 1014.3
20260507061759 52 184 0.0 1.7 0.00 0.34 0.00 94 1014.3
20260507061258 52 181 0.0 1.7 0.00 0.34 0.00 94 1014.2
20260507060758 52 182 0.0 1.7 0.00 0.35 0.00 94 1014.2
20260507060259 52 181 0.0 1.7 0.00 0.37 0.00 94 1014.2
20260507055759 52 177 0.0 1.7 0.00 0.37 0.00 94 1014.1
20260507055258 52 187 0.0 1.7 0.00 0.38 0.00 94 1014.1
20260507054758 52 234 0.0 1.7 0.00 0.39 0.00 94 1014.1
20260507054259 52 234 1.7 1.7 0.00 0.39 0.00 94 1014.0
20260507053758 52 234 1.7 4.3 0.00 0.40 0.00 93 1014.0
20260507053259 52 234 0.9 4.3 0.00 0.40 0.00 93 1014.0
20260507052758 51 281 0.9 2.6 0.00 0.42 0.00 92 1013.9
20260507051759 51 283 0.0 1.7 0.00 0.42 0.00 93 1013.9
20260507051259 51 283 0.0 2.6 0.00 0.42 0.00 93 1013.8
20260507050300 51 1 0.9 1.7 0.00 0.42 0.00 93 1013.8
20260507045759 51 1 0.9 1.7 0.00 0.42 0.00 93 1013.7
20260507045258 51 354 1.7 1.7 0.00 0.42 0.00 93 1013.7
20260507044758 51 286 1.7 4.3 0.00 0.42 0.00 93 1013.7
20260507044258 51 286 1.7 4.3 0.00 0.42 0.00 93 1013.5
20260507043759 51 264 1.7 4.3 0.00 0.42 0.00 92 1013.5
20260507043258 51 291 1.7 4.3 0.00 0.42 0.00 92 1013.5
20260507042758 51 272 1.7 4.3 0.00 0.42 0.00 92 1013.3
20260507041758 51 285 1.7 5.2 0.00 0.42 0.00 92 1013.3
20260507041259 51 281 0.9 5.2 0.00 0.42 0.00 92 1013.3
20260507040759 51 284 0.9 5.2 0.00 0.42 0.00 92 1013.3
20260507040259 50 357 1.7 5.2 0.00 0.42 0.00 93 1013.3
20260507035759 50 251 1.7 5.2 0.00 0.42 0.00 92 1013.3
20260507035259 50 308 1.7 4.3 0.00 0.42 0.00 93 1013.3
20260507034758 50 281 1.7 5.2 0.00 0.42 0.00 94 1013.3
20260507034259 50 305 1.7 5.2 0.00 0.42 0.00 94 1013.2
20260507033759 50 305 1.7 5.2 0.00 0.42 0.00 94 1013.2
20260507033300 50 274 1.7 4.3 0.00 0.42 0.00 94 1013.2
20260507032758 50 57 1.7 4.3 0.00 0.42 0.00 94 1013.0
20260507032259 50 276 1.7 4.3 0.00 0.42 0.00 95 1013.0
20260507031758 50 351 1.7 2.6 0.00 0.42 0.00 95 1013.0
20260507031259 50 4 1.7 4.3 0.00 0.42 0.00 95 1012.9
20260507025758 50 323 0.0 2.6 0.00 0.42 0.00 95 1012.8
20260507025259 50 282 0.0 1.7 0.00 0.42 0.00 95 1012.8
20260507024759 51 282 0.0 1.7 0.00 0.42 0.00 95 1012.8
20260507024300 51 282 0.0 1.7 0.00 0.42 0.00 95 1013.1
20260507023759 51 296 0.0 0.0 0.00 0.42 0.00 95 1013.1
20260507022759 51 281 0.0 1.7 0.00 0.42 0.00 95 1013.2
20260507022300 51 281 0.0 2.6 0.00 0.42 0.00 95 1013.2
20260507021759 51 281 0.0 2.6 0.00 0.42 0.00 95 1013.2
20260507021258 51 32 0.0 2.6 0.00 0.42 0.00 95 1013.2
20260507020759 51 68 0.0 1.7 0.00 0.42 0.00 95 1013.2
20260507015759 51 68 0.0 1.7 0.00 0.42 0.00 95 1013.1
20260507014800 51 69 0.9 4.3 0.00 0.42 0.00 95 1013.1
20260507014259 51 69 0.0 4.3 0.00 0.42 0.00 95 1013.0
20260507013259 51 28 0.0 0.9 0.00 0.42 0.00 95 1013.0
20260507012759 51 28 0.0 1.7 0.00 0.42 0.00 95 1012.9
20260507011759 52 28 0.0 1.7 0.00 0.42 0.00 95 1012.9
20260507010759 52 51 0.0 1.7 0.00 0.42 0.00 95 1012.9
20260507010259 52 51 0.0 1.7 0.00 0.42 0.00 95 1012.9
20260507005800 52 52 0.0 1.7 0.00 0.42 0.00 96 1012.9
20260507004759 52 52 0.9 1.7 0.00 0.42 0.00 95 1012.9
20260507004259 52 52 0.0 2.6 0.00 0.42 0.00 95 1012.8
20260507003758 52 52 0.0 2.6 0.00 0.42 0.00 96 1012.8
20260507003259 52 274 0.9 2.6 0.00 0.42 0.00 96 1012.8
20260507002759 52 274 0.9 2.6 0.00 0.42 0.00 96 1012.9
20260507001800 52 311 0.9 2.6 0.00 0.42 0.00 96 1012.9
20260507000759 52 339 0.9 4.3 0.00 0.42 0.00 96 1012.9
20260507000259 52 250 0.0 2.6 0.00 0.42 0.00 95 1012.9
20260506235759 52 223 0.0 1.7 0.00 0.42 0.00 95 1012.8
20260506235259 52 223 0.0 1.7 0.00 0.42 0.00 95 1012.8
20260506234800 52 223 0.0 1.7 0.00 0.42 0.00 95 1012.8
20260506234300 52 223 0.9 2.6 0.00 0.42 0.00 95 1012.8
20260506233259 53 282 0.9 1.7 0.00 0.42 0.00 95 1012.8
20260506232759 53 294 0.9 1.7 0.00 0.42 0.00 95 1012.8
20260506232259 53 294 0.9 1.7 0.00 0.42 0.00 95 1012.8
20260506231759 53 240 0.9 2.6 0.00 0.42 0.00 95 1012.8
20260506231259 53 240 0.0 2.6 0.00 0.42 0.00 95 1012.8
20260506230259 53 159 0.0 1.7 0.00 0.42 0.00 95 1012.8
20260506225759 53 158 0.0 1.7 0.00 0.42 0.00 95 1012.8
20260506225259 53 158 0.9 1.7 0.00 0.42 0.00 95 1012.8
20260506224800 53 159 0.9 1.7 0.00 0.42 0.00 95 1012.8
20260506224300 53 159 0.0 1.7 0.00 0.42 0.00 95 1012.9
20260506223759 53 295 0.0 1.7 0.00 0.42 0.00 95 1012.9
20260506223259 53 318 0.9 2.6 0.00 0.42 0.00 95 1012.9
20260506221759 53 274 0.0 0.0 0.00 0.42 0.00 95 1012.8
20260506221259 53 283 1.7 2.6 0.00 0.42 0.00 95 1012.7
20260506220844 53 283 1.7 4.3 0.00 0.42 0.00 95 1012.7
20260506220301 53 283 1.7 4.3 0.00 0.42 0.00 95 1012.7
20260506215800 54 296 1.7 2.6 0.00 0.42 0.42 95 1012.7
20260506215259 54 46 1.7 2.6 0.00 0.42 0.42 95 1012.7
20260506214759 54 60 1.7 4.3 0.00 0.42 0.42 95 1012.7
20260506214259 54 283 0.0 4.3 0.00 0.42 0.42 95 1012.7
20260506213759 54 24 0.0 2.6 0.00 0.42 0.42 95 1012.7
20260506213300 54 161 0.9 2.6 0.00 0.42 0.42 95 1012.7
20260506212759 54 59 0.9 2.6 0.00 0.42 0.42 95 1012.9
20260506212259 54 281 0.0 2.6 0.00 0.42 0.42 95 1012.9
20260506211759 54 182 0.0 2.6 0.00 0.42 0.42 95 1012.9
20260506211259 54 283 0.0 0.0 0.00 0.42 0.42 95 1012.6
20260506210800 54 281 0.0 0.0 0.00 0.42 0.42 95 1012.6
20260506210259 54 281 0.9 2.6 0.00 0.42 0.42 95 1012.6
20260506205759 54 281 0.9 2.6 0.00 0.42 0.42 95 1012.7
20260506205300 54 119 0.0 1.7 0.00 0.42 0.42 95 1012.7
20260506204759 55 261 0.0 1.7 0.00 0.42 0.42 95 1012.7
20260506204259 54 150 1.7 4.3 0.00 0.42 0.42 95 1012.5
20260506203759 55 148 1.7 4.3 0.00 0.42 0.42 95 1012.5
20260506203300 55 268 0.0 4.3 0.00 0.42 0.42 95 1012.5
20260506202759 55 0 0.0 1.7 0.00 0.42 0.42 95 1012.5
20260506202259 54 279 0.0 1.7 0.00 0.42 0.42 95 1012.5
20260506201801 54 340 0.0 0.0 0.00 0.42 0.42 95 1012.5
20260506201259 55 340 0.9 0.0 0.00 0.42 0.42 95 1012.5
20260506200759 54 340 0.9 1.7 0.00 0.42 0.42 95 1012.5